Hourly Data Report for September 17, 2017

All times are specified in Local Standard Time (LST). Add 1 hour to adjust for Daylight Saving Time where and when it is observed.

KUGLUKTUK A
NUNAVUT

67°49'00.000" N
115°08'38.000" W
22.60 m
2300903
71938
YCO

Download Data

Hourly Data (September 2017)
Hourly Data Report for September 17, 2017
Temp Definition
°C
Dew Point Temp Definition
°C
Rel Hum Definition
%
Wind Dir Definition
10's deg

Wind Spd Definition
km/h
Visibility Definition
km
Stn Press Definition
kPa
Hmdx Definition


Wind Chill Definition


Weather Definition


TIME
00:00 Legend Double Dagger 9.3 8.1 92 24 18 24.1 100.00     Rain
01:00 Legend Double Dagger 7.5 6.6 94 22 18 24.1 100.02     LegendNANA
02:00 Legend Double Dagger 7.7 6.3 91 23 19 24.1 100.04     Mostly Cloudy
03:00 Legend Double Dagger 8.0 6.3 89 24 24 24.1 100.05     LegendNANA
04:00 Legend Double Dagger 8.0 6.7 91 23 21 24.1 100.05     LegendNANA
05:00 Legend Double Dagger 8.4 7.0 91 23 18 24.1 100.05     Mostly Cloudy
06:00 Legend Double Dagger 8.1 6.7 91 22 14 24.1 100.06     LegendNANA
07:00 Legend Double Dagger 8.3 6.8 90 23 14 24.1 100.08     LegendNANA
08:00 Legend Double Dagger 9.2 7.2 87 23 19 24.1 100.08     Mostly Cloudy
09:00 Legend Double Dagger 9.7 7.1 84 24 20 24.1 100.09     LegendNANA
10:00 Legend Double Dagger 10.8 7.1 78 25 26 24.1 100.11     LegendNANA
11:00 Legend Double Dagger 11.5 7.0 74 26 20 24.1 100.14     Mostly Cloudy
12:00 Legend Double Dagger 11.8 6.7 71 28 24 24.1 100.17     LegendNANA
13:00 Legend Double Dagger 11.8 6.8 71 28 17 24.1 100.21     LegendNANA
14:00 Legend Double Dagger 9.9 7.5 85 34 14 24.1 100.29     Cloudy
15:00 Legend Double Dagger 9.9 6.9 81 32 21 24.1 100.33     LegendNANA
16:00 Legend Double Dagger 8.8 6.7 87 32 17 24.1 100.39     Rain
17:00 Legend Double Dagger 8.3 5.7 84 33 13 24.1 100.44     Rain
18:00 Legend Double Dagger 7.8 5.3 84 29 13 24.1 100.48     Rain
19:00 Legend Double Dagger 7.3 5.3 87 27 14 24.1 100.51     Rain
20:00 Legend Double Dagger 6.9 5.4 90 29 14 16.1 100.54     Rain
21:00 Legend Double Dagger 6.6 5.7 93 27 16 19.3 100.57     Rain
22:00 Legend Double Dagger 6.3 5.7 96 27 15 16.1 100.61     Rain
23:00 Legend Double Dagger 6.1 5.6 97 29 14 16.1 100.63     Rain

Notes on Data Quality.

Legend

  • E = Estimated
  • M = Missing
  • NA = Not Available
  • ‡ = Partner data that is not subject to review by the National Climate Archives
Date modified: